Location: Casone le Fosse
(44.6547°N, 12.1103°E)
Time: 07:59:18
(UTC+00:00)

Cosmos 1980 Rocket - Pass Details

Date: 29 October 2020
Orbit: 831 x 848 km, 71.0° (Epoch: 27 November)

Event Time Altitude Azimuth Distance (km) Brightness Sun altitude
Rises 17:29:27 0° 179° (S) 3,376 5.4 -15.7°
Reaches altitude 10° 17:32:02 10° 171° (S) 2,444 4.6 -16.1°
Maximum altitude 17:37:07 37° 106° (ESE) 1,278 2.6 -17.0°
Enters shadow 17:39:34 25° 60° (ENE) 1,625 3.2 -17.5°
